Overview Statistics Trail Chart Weather Telemetry Raw packets
 

This is the latest recevied weather packets stored in our database for station/object W4UWO. If no packets are shown the sender has not sent any weather packets the latest 10 day(s).

<< 57 58 59 60 61 62 63 >>
Time Temp. Humidity Pressure Rain* Wind** Luminosity Snow
1788231013 26.67° C 76% 1019.5 hPa 0 mm - 0 W/m² -
1788230708 27.22° C 75% 1019.5 hPa 0 mm - 0 W/m² -
1788230407 27.22° C 75% 1019.5 hPa 0 mm - 0 W/m² -
1788230107 26.67° C 76% 1019.4 hPa 0 mm - 0 W/m² -
1788229802 26.67° C 76% 1019.2 hPa 0 mm - 0 W/m² -
1788229497 27.22° C 76% 1019.2 hPa 0 mm - 0 W/m² -
1788229192 27.22° C 75% 1019.3 hPa 0 mm - 0 W/m² -
1788228888 27.78° C 74% 1019.3 hPa 0 mm - 0 W/m² -
1788228583 27.78° C 74% 1019.2 hPa 0 mm - 0 W/m² -
1788228278 27.78° C 74% 1019.1 hPa 0 mm - 0 W/m² -
1788227977 27.78° C 74% 1019 hPa 0 mm - 0 W/m² -
1788227674 27.78° C 74% 1019.2 hPa 0 mm - 0 W/m² -
1788227373 28.33° C 73% 1019 hPa 0 mm - 0 W/m² -
1788227070 28.33° C 73% 1019.1 hPa 0 mm - 0 W/m² -
1788226765 28.33° C 72% 1018.9 hPa 0 mm - 0 W/m² -
1788226460 28.89° C 72% 1018.9 hPa 0 mm - 0 W/m² -
1788226156 28.89° C 71% 1018.9 hPa 0 mm - 0 W/m² -
1788225856 28.89° C 69% 1018.8 hPa 0 mm - 0 W/m² -
1788225552 29.44° C 67% 1018.6 hPa 0 mm - 0 W/m² -
1788225248 29.44° C 67% 1018.7 hPa 0 mm - 0 W/m² -
1788224946 30° C 64% 1018.7 hPa 0 mm - 0 W/m² -
1788224641 30° C 64% 1018.7 hPa 0 mm - 0 W/m² -
1788224340 30° C 64% 1018.6 hPa 0 mm - 0 W/m² -
1788224035 30.56° C 62% 1018.5 hPa 0 mm - 0 W/m² -
1788223730 30.56° C 60% 1018.7 hPa 0 mm - 0 W/m² -

* Rain latest hour (hover to see other rain measurements)
** Current wind speed in m/s (hover to see current wind gust speed)